Tracking 19193 objects as of 22-Jun-2018
HD Live streaming from Space Station
objects crossing your sky now

FENGYUN 1C DEB

Track FENGYUN 1C DEB now!
10-day predictions


NORAD ID: 38504
Int'l Code: 1999-025ESP
Perigee: 752.8 km
Apogee: 1,066.5 km
Inclination: 98.0 °
Period: 103.0 minutes
Semi major axis: 7280 km
RCS: 0.003 m2 (small)
Launch date: May 10, 1999
Source: People's Republic of China (PRC)
Launch site: Taiyaun Space Center, China (TSC)

Note: This is SATELLITE DEBRIS
aabbcc
Your satellite tracking list
Your tracking list is empty




NASA's NSSDC Master Catalog

Two Line Element Set (TLE):
1 38504U 99025ESP 18172.30051727  .00001041  00000-0  62960-3 0  9991
2 38504  98.0166   3.3770 0215397 329.3750  29.4986 13.97481989465594
Source of the keplerian elements: AFSPC